GW7345 Weather Reports


time (UTC)temp
C
wind
direction
speed
KPH
gust
KPH
rain 1hr
cm
rain 24hr
cm
rain mn
cm
humidity
%
barometer
mb
20260906083057 21 184 0.0 3.2 0.00 0.00 0.00 97 1011.5
20260906082517 21 172 0.0 1.6 0.00 0.00 0.00 97 1011.4
20260906082057 21 0.0 0.0 0.00 0.00 0.00 97 1011.4
20260906081517 21 185 0.0 3.2 0.00 0.00 0.00 97 1011.3
20260906081017 21 183 1.6 4.8 0.00 0.00 0.00 97 1011.3
20260906080517 21 183 0.0 3.2 0.00 0.00 0.00 96 1011.2
20260906080037 21 210 0.0 3.2 0.00 0.00 0.00 96 1011.1
20260906075537 21 171 0.0 1.6 0.00 0.00 0.00 96 1011.1
20260906075017 21 182 0.0 1.6 0.00 0.00 0.00 96 1011.1
20260906074538 21 192 0.0 3.2 0.00 0.00 0.00 96 1011.1
20260906074018 21 186 0.0 3.2 0.00 0.00 0.00 95 1011.0
20260906073518 21 188 0.0 3.2 0.00 0.00 0.00 95 1011.0
20260906073018 21 181 0.0 3.2 0.00 0.00 0.00 95 1011.0
20260906072518 21 186 0.0 3.2 0.00 0.00 0.00 94 1011.1
20260906072018 21 185 0.0 1.6 0.00 0.00 0.00 94 1011.2
20260906071518 21 0.0 0.0 0.00 0.00 0.00 94 1011.2
20260906071018 21 0.0 0.0 0.00 0.00 0.00 94 1011.2
20260906070515 22 200 0.0 3.2 0.00 0.00 0.00 93 1011.2
20260906070039 22 192 0.0 3.2 0.00 0.00 0.00 93 1011.3
20260906065519 22 192 0.0 3.2 0.00 0.00 0.00 93 1011.3
20260906065018 22 188 0.0 3.2 0.00 0.00 0.00 93 1011.3
20260906064519 22 189 0.0 3.2 0.00 0.00 0.00 93 1011.3
20260906064019 22 180 0.0 1.6 0.00 0.00 0.00 93 1011.3
20260906063519 22 0.0 0.0 0.00 0.00 0.00 93 1011.3
20260906063019 22 183 0.0 4.8 0.00 0.00 0.00 93 1011.4
20260906062519 22 197 0.0 1.6 0.00 0.00 0.00 93 1011.4
20260906062019 22 203 0.0 3.2 0.00 0.00 0.00 93 1011.5
20260906061539 22 188 0.0 3.2 0.00 0.00 0.00 93 1011.5
20260906061019 22 189 0.0 3.2 0.00 0.00 0.00 92 1011.6
20260906060539 22 0.0 0.0 0.00 0.00 0.00 92 1011.6
20260906060056 22 184 0.0 1.6 0.00 0.00 0.00 92 1011.6
20260906055516 22 194 0.0 3.2 0.00 0.00 0.00 91 1011.6
20260906055036 22 203 0.0 3.2 0.00 0.00 0.00 91 1011.6
20260906054536 22 199 0.0 1.6 0.00 0.00 0.00 90 1011.7
20260906054016 22 196 0.0 3.2 0.00 0.00 0.00 90 1011.8
20260906053516 22 191 0.0 3.2 0.00 0.00 0.00 90 1011.9
20260906053017 22 190 0.0 3.2 0.00 0.00 0.00 89 1011.9
20260906052517 22 189 1.6 3.2 0.00 0.00 0.00 88 1012.0
20260906052037 22 189 1.6 4.8 0.00 0.00 0.00 89 1011.9
20260906051517 22 186 0.0 1.6 0.00 0.00 0.00 89 1011.9
20260906051017 22 0.0 0.0 0.00 0.00 0.00 88 1011.9
20260906050517 22 0.0 0.0 0.00 0.00 0.00 88 1012.0
20260906050017 22 191 0.0 1.6 0.00 0.00 0.00 87 1012.0
20260906045517 23 187 0.0 1.6 0.00 0.00 0.00 87 1012.0
20260906045017 23 194 0.0 3.2 0.00 0.00 0.00 87 1012.0
20260906044517 23 188 1.6 3.2 0.00 0.00 0.00 87 1012.1
20260906044038 23 189 1.6 4.8 0.00 0.00 0.00 87 1012.1
20260906043517 23 194 0.0 3.2 0.00 0.00 0.00 87 1012.1
20260906043017 23 0.0 0.0 0.00 0.00 0.00 86 1012.1
20260906042537 23 0.0 0.0 0.00 0.00 0.00 86 1012.1
20260906042057 23 202 0.0 4.8 0.00 0.00 0.00 86 1012.2
20260906041517 23 198 0.0 4.8 0.00 0.00 0.00 86 1012.2
20260906041018 23 187 1.6 6.4 0.00 0.00 0.00 86 1012.2
20260906040518 23 197 0.0 3.2 0.00 0.00 0.00 86 1012.2
20260906040018 23 294 0.0 3.2 0.00 0.00 0.00 86 1012.1
20260906035518 23 287 0.0 1.6 0.00 0.00 0.00 86 1012.2
20260906035038 23 277 0.0 3.2 0.00 0.00 0.00 87 1012.2
20260906034515 23 306 0.0 1.6 0.00 0.00 0.00 87 1012.3
20260906034015 23 221 0.0 4.8 0.00 0.00 0.00 87 1012.3
20260906033535 23 216 0.0 4.8 0.00 0.00 0.00 87 1012.4
20260906033035 23 197 1.6 4.8 0.00 0.00 0.00 87 1012.4
20260906032536 23 209 1.6 6.4 0.00 0.00 0.00 87 1012.5
20260906032015 23 206 0.0 3.2 0.00 0.00 0.00 88 1012.5
20260906031515 23 197 0.0 4.8 0.00 0.00 0.00 88 1012.5
20260906031016 23 215 1.6 3.2 0.00 0.00 0.00 88 1012.5
20260906030516 23 196 1.6 6.4 0.00 0.00 0.00 88 1012.5
20260906030016 23 249 0.0 4.8 0.00 0.00 0.00 88 1012.5
20260906025516 23 211 1.6 6.4 0.00 0.00 0.00 88 1012.5
20260906025036 23 205 0.0 1.6 0.00 0.00 0.00 88 1012.3
20260906024516 23 196 0.0 4.8 0.00 0.00 0.00 88 1012.2
20260906024016 23 200 0.0 1.6 0.00 0.00 0.00 89 1012.2
20260906023516 23 235 0.0 1.6 0.00 0.00 0.00 89 1012.2
20260906023016 23 231 0.0 1.6 0.00 0.00 0.00 88 1012.2
20260906022516 23 0.0 0.0 0.00 0.00 0.00 88 1012.2
20260906022016 23 0.0 0.0 0.00 0.00 0.00 88 1012.2
20260906021517 23 266 0.0 1.6 0.00 0.00 0.00 88 1012.2
20260906021016 23 195 1.6 4.8 0.00 0.00 0.00 88 1012.2
20260906020516 23 190 0.0 3.2 0.00 0.00 0.00 88 1012.3
20260906020016 23 196 0.0 1.6 0.00 0.00 0.00 89 1012.2
20260906015517 23 183 1.6 3.2 0.00 0.00 0.00 89 1012.2
20260906015017 23 203 0.0 3.2 0.00 0.00 0.00 88 1012.1
20260906014517 23 296 0.0 3.2 0.00 0.00 0.00 88 1012.2
20260906014017 23 216 0.0 1.6 0.00 0.00 0.00 88 1012.2
20260906013517 23 0.0 0.0 0.00 0.00 0.00 87 1012.2
20260906013037 24 210 0.0 1.6 0.00 0.00 0.00 87 1012.1
20260906012537 24 201 0.0 3.2 0.00 0.00 0.00 86 1012.1
20260906012037 24 194 0.0 3.2 0.00 0.00 0.00 85 1012.1
20260906011537 24 200 0.0 3.2 0.00 0.00 0.00 85 1012.0
20260906011017 24 181 0.0 1.6 0.00 0.00 0.00 84 1012.0
20260906010517 25 200 0.0 3.2 0.00 0.00 0.00 83 1012.1
20260906010017 25 186 0.0 0.0 0.00 0.00 0.00 83 1012.2
20260906005538 25 194 1.6 4.8 0.00 0.00 0.00 84 1012.1
20260906005017 25 196 0.0 3.2 0.00 0.00 0.00 84 1012.1
20260906004518 25 194 1.6 6.4 0.00 0.00 0.00 83 1012.1
20260906004038 25 191 1.6 4.8 0.00 0.00 0.00 83 1012.0
20260906003515 25 200 1.6 4.8 0.00 0.00 0.00 83 1012.0
20260906003018 25 197 0.0 3.2 0.00 0.00 0.00 82 1011.9
20260906002518 25 209 0.0 1.6 0.00 0.00 0.00 82 1011.9
20260906002018 25 35 0.0 3.2 0.00 0.00 0.00 82 1011.8
20260906001538 25 200 1.6 6.4 0.00 0.00 0.00 82 1011.8
20260906001016 26 199 0.0 4.8 0.00 0.00 0.00 82 1011.7
20260906000555 26 185 1.6 6.4 0.00 0.00 0.00 81 1011.7
20260906000015 26 193 1.6 4.8 0.00 0.00 0.00 81 1011.5
20260905235516 26 194 3.2 4.8 0.00 0.00 0.00 80 1011.4
20260905235016 26 185 1.6 4.8 0.00 0.00 0.00 78 1011.3
20260905234516 26 0.0 0.0 0.00 0.00 0.00 77 1011.2
20260905234016 26 0.0 0.0 0.00 0.00 0.00 77 1011.1
20260905233516 27 0.0 0.0 0.00 0.00 0.00 76 1011.0
20260905233056 27 263 0.0 3.2 0.00 0.00 0.00 75 1011.0
20260905232517 27 133 0.0 1.6 0.00 0.00 0.00 75 1011.0
20260905232016 27 83 0.0 3.2 0.00 0.00 0.00 75 1011.0
20260905231516 27 63 0.0 3.2 0.00 0.00 0.00 74 1011.0
20260905231016 27 85 1.6 4.8 0.00 0.00 0.00 73 1011.0
20260905230517 28 88 0.0 3.2 0.00 0.00 0.00 72 1011.0
20260905230017 28 267 0.0 3.2 0.00 0.00 0.00 72 1011.0
20260905225517 28 89 1.6 4.8 0.00 0.00 0.00 71 1010.9
20260905225017 28 91 1.6 4.8 0.00 0.00 0.00 70 1010.9
20260905224537 29 77 1.6 4.8 0.00 0.00 0.00 68 1011.0
20260905224017 29 79 0.0 4.8 0.00 0.00 0.00 67 1010.9
20260905223517 30 96 1.6 4.8 0.00 0.00 0.00 67 1010.9
20260905223017 30 92 1.6 8.0 0.00 0.00 0.00 65 1010.8
20260905222517 30 304 1.6 4.8 0.00 0.00 0.00 64 1010.7
20260905222018 30 310 1.6 4.8 0.00 0.00 0.00 63 1010.7
20260905221517 30 86 1.6 4.8 0.00 0.00 0.00 64 1010.9
20260905221017 30 111 1.6 4.8 0.00 0.00 0.00 63 1010.9
20260905220517 30 252 0.0 4.8 0.00 0.00 0.00 64 1010.9
20260905220018 28 220 0.0 4.8 0.00 0.00 0.00 67 1010.8
20260905215518 28 143 1.6 3.2 0.00 0.00 0.00 70 1010.8
20260905215018 27 167 0.0 4.8 0.00 0.00 0.00 71 1010.7
20260905214518 27 119 0.0 3.2 0.00 0.00 0.00 72 1010.8
20260905214018 27 0.0 0.0 0.00 0.00 0.00 73 1010.8
20260905213518 27 305 0.0 3.2 0.00 0.00 0.00 73 1011.0
20260905213018 27 68 0.0 4.8 0.00 0.00 0.00 73 1011.3
20260905212518 27 56 0.0 3.2 0.00 0.00 0.00 72 1011.5
20260905212017 27 72 1.6 3.2 0.00 0.00 0.00 71 1011.7
20260905211516 27 67 0.0 3.2 0.00 0.00 0.00 71 1011.9
20260905211015 27 82 0.0 3.2 0.00 0.00 0.00 70 1011.8
20260905210515 27 275 0.0 3.2 0.00 0.00 0.00 69 1011.8
20260905210016 27 253 0.0 3.2 0.00 0.00 0.00 69 1011.8
20260905205516 27 311 0.0 3.2 0.00 0.00 0.00 69 1011.6
20260905205136 27 303 0.0 1.6 0.00 0.00 0.00 68 1011.5
20260905204515 27 285 0.0 1.6 0.00 0.00 0.00 68 1011.4
20260905204016 27 313 0.0 1.6 0.00 0.00 0.00 68 1011.5
20260905203516 27 267 0.0 4.8 0.00 0.00 0.00 68 1011.5
20260905203036 27 284 0.0 3.2 0.00 0.00 0.00 68 1011.3
20260905202516 27 300 1.6 4.8 0.00 0.00 0.00 67 1011.3
20260905202016 27 299 1.6 4.8 0.00 0.00 0.00 67 1011.2
20260905201517 28 245 1.6 4.8 0.00 0.00 0.00 66 1011.1
20260905201016 28 277 3.2 9.7 0.00 0.00 0.00 65 1011.0
20260905200517 28 274 3.2 6.4 0.00 0.00 0.00 63 1011.0
20260905200016 29 102 1.6 8.0 0.00 0.00 0.00 62 1011.0
20260905195517 30 203 3.2 9.7 0.00 0.00 0.00 59 1011.1
20260905195017 30 193 3.2 8.0 0.00 0.00 0.00 58 1010.7
20260905194517 30 124 3.2 11.3 0.00 0.00 0.00 57 1010.6
20260905194017 31 87 4.8 11.3 0.00 0.00 0.00 56 1010.9
20260905193517 32 86 4.8 17.7 0.00 0.00 0.00 55 1011.0
20260905193018 35 110 4.8 14.5 0.00 0.00 0.00 52 1011.2
20260905192517 37 267 6.4 16.1 0.00 0.00 0.00 45 1011.1
20260905192017 37 297 3.2 6.4 0.00 0.00 0.00 42 1011.0
20260905191517 37 219 3.2 6.4 0.00 0.00 0.00 44 1010.9
20260905191017 37 272 3.2 11.3 0.00 0.00 0.00 43 1010.9
20260905190517 37 262 3.2 8.0 0.00 0.00 0.00 43 1010.9
20260905190017 37 225 3.2 8.0 0.00 0.00 0.00 43 1010.9
20260905185518 37 170 3.2 6.4 0.00 0.00 0.00 43 1010.9
20260905185018 37 279 1.6 6.4 0.00 0.00 0.00 43 1010.9
20260905184518 36 241 1.6 6.4 0.00 0.00 0.00 44 1011.0
20260905184018 36 293 1.6 6.4 0.00 0.00 0.00 45 1011.1
20260905183517 36 284 1.6 8.0 0.00 0.00 0.00 46 1011.1
20260905183037 36 312 3.2 8.0 0.00 0.00 0.00 46 1011.2
20260905182518 36 285 3.2 8.0 0.00 0.00 0.00 46 1011.3
20260905182016 36 315 3.2 8.0 0.00 0.00 0.00 46 1011.3
20260905181518 36 294 3.2 6.4 0.00 0.00 0.00 48 1011.4
20260905181015 36 286 1.6 4.8 0.00 0.00 0.00 46 1011.5
20260905180518 36 249 1.6 4.8 0.00 0.00 0.00 49 1011.5
20260905180018 36 295 1.6 8.0 0.00 0.00 0.00 49 1011.6
20260905175515 35 141 1.6 4.8 0.00 0.00 0.00 49 1011.8
20260905175018 35 303 3.2 8.0 0.00 0.00 0.00 50 1012.0
20260905174536 36 300 1.6 6.4 0.00 0.00 0.00 49 1012.1
20260905174016 36 214 3.2 6.4 0.00 0.00 0.00 49 1012.2
20260905173515 35 267 1.6 4.8 0.00 0.00 0.00 51 1012.3
20260905173016 35 201 3.2 8.0 0.00 0.00 0.00 52 1012.3
20260905172516 35 186 6.4 12.9 0.00 0.00 0.00 52 1012.4
20260905172016 35 182 3.2 9.7 0.00 0.00 0.00 50 1012.5
20260905171516 35 176 3.2 8.0 0.00 0.00 0.00 51 1012.6
20260905171016 35 232 1.6 4.8 0.00 0.00 0.00 50 1012.7
20260905170516 35 302 1.6 4.8 0.00 0.00 0.00 50 1012.8
20260905170036 35 286 1.6 4.8 0.00 0.00 0.00 52 1012.8
20260905165556 35 111 1.6 6.4 0.00 0.00 0.00 55 1012.9
20260905165016 35 104 3.2 6.4 0.00 0.00 0.00 55 1012.9
20260905164516 35 187 1.6 4.8 0.00 0.00 0.00 56 1013.0
20260905164016 35 198 1.6 4.8 0.00 0.00 0.00 57 1013.0
20260905163537 34 193 1.6 8.0 0.00 0.00 0.00 57 1013.1
20260905163017 34 238 1.6 4.8 0.00 0.00 0.00 56 1013.1
20260905162516 34 198 1.6 6.4 0.00 0.00 0.00 57 1013.2
20260905162017 33 149 1.6 4.8 0.00 0.00 0.00 57 1013.2
20260905161517 33 290 1.6 6.4 0.00 0.00 0.00 59 1013.3
20260905161017 33 286 1.6 4.8 0.00 0.00 0.00 61 1013.3
20260905160517 33 195 3.2 8.0 0.00 0.00 0.00 61 1013.4
20260905160057 33 308 1.6 4.8 0.00 0.00 0.00 62 1013.5
20260905155537 33 313 1.6 8.0 0.00 0.00 0.00 61 1013.5
20260905155017 33 272 1.6 6.4 0.00 0.00 0.00 62 1013.6
20260905154517 32 205 1.6 6.4 0.00 0.00 0.00 63 1013.5
20260905154037 32 197 3.2 6.4 0.00 0.00 0.00 63 1013.6
20260905153557 32 296 1.6 6.4 0.00 0.00 0.00 64 1013.6
20260905153017 32 308 1.6 8.0 0.00 0.00 0.00 64 1013.6
20260905152517 32 302 1.6 6.4 0.00 0.00 0.00 65 1013.6
20260905152017 32 317 1.6 6.4 0.00 0.00 0.00 65 1013.5
20260905151518 32 303 1.6 6.4 0.00 0.00 0.00 66 1013.4
20260905151017 31 305 1.6 4.8 0.00 0.03 0.00 66 1013.5
20260905150517 31 274 1.6 6.4 0.00 0.03 0.00 67 1013.5
20260905150017 31 308 1.6 4.8 0.00 0.03 0.00 69 1013.5
20260905145517 31 272 1.6 9.7 0.00 0.03 0.00 69 1013.6
20260905145018 31 293 1.6 6.4 0.00 0.03 0.00 69 1013.7
20260905144518 31 208 3.2 6.4 0.00 0.03 0.00 69 1013.7
20260905144015 30 292 1.6 8.0 0.00 0.03 0.00 69 1013.7
20260905143515 30 303 3.2 6.4 0.00 0.03 0.00 71 1013.7
20260905143055 30 311 1.6 6.4 0.00 0.03 0.00 71 1013.7
20260905142515 30 201 1.6 6.4 0.00 0.03 0.00 72 1013.6
20260905142018 30 197 3.2 9.7 0.00 0.03 0.00 73 1013.7
20260905141515 29 204 3.2 8.0 0.00 0.03 0.00 73 1013.7
20260905141015 29 255 1.6 9.7 0.00 0.03 0.00 74 1013.8
20260905140515 28 298 1.6 6.4 0.00 0.03 0.00 75 1013.7
20260905140015 28 247 3.2 8.0 0.00 0.03 0.00 75 1013.7
20260905135515 28 261 3.2 6.4 0.00 0.03 0.00 76 1013.7
20260905135016 28 231 3.2 9.7 0.00 0.03 0.00 76 1013.7
20260905134515 28 224 1.6 8.0 0.00 0.03 0.00 77 1013.8
20260905134016 28 271 3.2 6.4 0.00 0.03 0.00 78 1013.9
20260905133516 27 199 1.6 8.0 0.00 0.03 0.00 78 1013.9
20260905133036 27 236 3.2 9.7 0.00 0.03 0.00 79 1013.9
20260905132516 27 263 3.2 8.0 0.00 0.03 0.00 80 1013.9
20260905132016 27 274 1.6 6.4 0.00 0.03 0.00 80 1013.9
20260905131516 27 264 3.2 9.7 0.00 0.03 0.00 81 1014.0
20260905131016 27 281 1.6 8.0 0.00 0.03 0.00 82 1014.0
20260905130516 27 270 1.6 6.4 0.00 0.03 0.00 82 1014.1
20260905130017 26 237 1.6 8.0 0.00 0.03 0.00 83 1014.1
20260905125516 26 214 1.6 6.4 0.00 0.03 0.00 84 1014.1
20260905125016 26 193 1.6 6.4 0.00 0.03 0.00 84 1014.2
20260905124516 26 223 1.6 9.7 0.00 0.03 0.00 85 1014.2
20260905124017 26 208 3.2 14.5 0.00 0.03 0.00 85 1014.2
20260905123537 26 259 3.2 11.3 0.00 0.03 0.00 86 1014.2
20260905123017 25 234 3.2 8.0 0.00 0.03 0.00 86 1014.2
20260905122536 25 241 1.6 8.0 0.00 0.03 0.00 87 1014.2
20260905122017 25 229 1.6 6.4 0.00 0.03 0.00 87 1014.2
20260905121517 25 204 1.6 11.3 0.00 0.03 0.00 88 1014.2
20260905121017 25 303 1.6 4.8 0.00 0.03 0.00 88 1014.2
20260905120517 25 264 1.6 6.4 0.00 0.03 0.00 89 1014.1
20260905120017 25 297 1.6 4.8 0.00 0.03 0.00 90 1014.1
20260905115538 24 277 3.2 8.0 0.00 0.03 0.00 90 1014.0
20260905115017 24 332 1.6 6.4 0.00 0.03 0.00 90 1014.0
20260905114517 24 286 1.6 8.0 0.00 0.03 0.00 91 1013.9
20260905114018 24 287 1.6 4.8 0.00 0.03 0.00 91 1013.9
20260905113517 24 252 0.0 4.8 0.00 0.03 0.00 91 1013.8
20260905113018 24 220 1.6 6.4 0.00 0.03 0.00 92 1013.6
20260905112518 24 225 0.0 6.4 0.00 0.03 0.00 91 1013.6
20260905112018 24 214 1.6 6.4 0.00 0.03 0.00 91 1013.5
20260905111517 24 286 0.0 3.2 0.00 0.03 0.00 91 1013.4
20260905111018 24 266 1.6 4.8 0.00 0.03 0.00 91 1013.2
20260905110518 24 196 1.6 6.4 0.00 0.03 0.00 91 1013.1
20260905110018 23 189 1.6 6.4 0.00 0.03 0.00 91 1013.1
20260905105515 24 186 1.6 4.8 0.00 0.03 0.00 91 1013.1
20260905105016 23 186 3.2 9.7 0.00 0.03 0.00 91 1013.1
20260905104515 23 187 1.6 4.8 0.00 0.03 0.00 91 1013.1
20260905104016 23 182 1.6 6.4 0.00 0.03 0.00 91 1013.0
20260905103515 23 175 1.6 8.0 0.00 0.03 0.00 91 1013.0
20260905103015 24 187 0.0 3.2 0.00 0.03 0.00 91 1012.9
20260905102536 24 179 1.6 4.8 0.00 0.03 0.00 91 1012.9
20260905102016 24 192 1.6 4.8 0.00 0.03 0.00 91 1012.9
20260905101516 23 184 1.6 4.8 0.00 0.03 0.00 91 1012.9
20260905101016 23 185 1.6 6.4 0.00 0.03 0.00 91 1012.9
20260905100516 23 183 0.0 4.8 0.00 0.03 0.00 91 1012.8
20260905100016 24 0.0 0.0 0.00 0.03 0.00 91 1012.8
20260905095516 24 216 0.0 1.6 0.00 0.03 0.00 91 1012.8
20260905095016 24 206 0.0 3.2 0.00 0.03 0.00 90 1012.9
20260905094556 24 200 0.0 1.6 0.00 0.03 0.00 89 1013.0
20260905094016 24 0.0 0.0 0.00 0.03 0.00 88 1012.9
20260905093516 24 0.0 0.0 0.00 0.03 0.00 88 1012.9
20260905093016 25 0.0 0.0 0.00 0.03 0.00 88 1012.8
20260905092516 25 0.0 0.0 0.00 0.03 0.00 88 1012.8
20260905092017 25 193 0.0 3.2 0.00 0.03 0.00 87 1012.8
20260905091517 25 295 0.0 3.2 0.00 0.03 0.00 87 1012.8
20260905091016 25 322 0.0 1.6 0.00 0.03 0.00 87 1012.8
20260905090520 25 277 0.0 3.2 0.00 0.03 0.00 87 1012.9
20260905090023 25 188 0.0 4.8 0.00 0.03 0.00 87 1012.9
20260905085523 25 183 0.0 3.2 0.00 0.03 0.00 86 1013.0
20260905085023 25 237 1.6 6.4 0.00 0.03 0.00 86 1012.9
20260905084523 25 257 1.6 4.8 0.00 0.03 0.00 86 1013.0
20260905084023 25 254 1.6 4.8 0.00 0.03 0.00 86 1013.0
20260905083528 25 321 1.6 4.8 0.00 0.03 0.00 86 1013.1